Location: Gammelsbach
(49.5261°N, 8.9630°E)
Time: 05:28:33
(UTC+00:00)

Cosmos 1437 Rocket - Pass Details

Date: 17 June 2025
Orbit: 456 x 498 km, 81.2° (Epoch: 12 July)

Event Time Altitude Azimuth Distance (km) Brightness Sun altitude
Exits shadow 20:34:17 - 182° (S) 2,107 5.3 -7.8°
Reaches altitude 10° 20:35:27 10° 180° (S) 1,617 4.7 -7.9°
Maximum altitude 20:38:57 63° 99° (E) 530 2.5 -8.2°
Drops below altitude 10° 20:42:32 10° 18° (NNE) 1,655 5.8 -8.6°
Sets 20:44:40 0° 15° (NNE) 2,547 6.8 -8.8°
